Location: Festilli
(46.4000°N, 11.6667°E)
Time: 18:35:34
(UTC+00:00)

USA 234 - Pass Details

Date: 03 March 2021
Orbit: 1102 x 1105 km, 123.0° (Epoch: 16 April)

Event Time Altitude Azimuth Distance (km) Brightness Sun altitude
Exits shadow 17:52:36 - 61° (ENE) 3,261 5.2 -9.5°
Reaches altitude 10° 17:53:28 10° 65° (ENE) 2,965 5.0 -9.6°
Maximum altitude 17:59:23 36° 130° (SE) 1,686 3.9 -10.6°
Drops below altitude 10° 18:05:17 10° 194° (SSW) 2,953 5.7 -11.6°
Sets 18:08:00 0° 203° (SSW) 3,908 6.4 -12.1°
